User: anonymous   Login
Location: Newark
(42.5998°N, 13.2232°E)
Time: 00:35:11
(UTC+00:00)
Language:

SPROUT - Orbit

View from above orbital plane
View from above orbital plane
View from above satellite
View from above satellite

Ground track
Ground track

The orbit data is extracted from the following two-line orbital elements,

1 39770U 14029E   20093.81837753  .00000772  00000-0  90869-4 0  9990
2 39770  97.8904 200.4571 0008113 208.7890 151.2880 14.87670109317819
Epoch (UTC): 02 April 2020 19:38:27
Eccentricity: 0.0008113
inclination: 97.8904°
perigee height: 599 km
apogee height: 611 km
right ascension of ascending node: 200.4571°
argument of perigee: 208.7890°
revolutions per day: 14.87670109
mean anomaly at epoch: 151.2880°
orbit number at epoch: 31781

The dashed part of the orbit path shows where the satellite is in the earth's shadow,  

DLR